This is the latest recevied weather packets stored in our database for station/object KC3ELT-10. If no packets are shown the sender has not sent any weather packets the latest 10 day(s).
| Time | Temp. | Humidity | Pressure | Rain* | Wind** | Luminosity | Snow |
|---|---|---|---|---|---|---|---|
| 1777491179 | 14.44° C | 63% | 1005.5 hPa | 0 mm | 1.34 m/s, 207° | - | - |
| 1777490878 | 14.44° C | 63% | 1005.8 hPa | 0 mm | 0.89 m/s, 113° | - | - |
| 1777490579 | 14.44° C | 61% | 1005.8 hPa | 0 mm | 1.34 m/s, 141° | - | - |
| 1777490278 | 14.44° C | 62% | 1005.8 hPa | 0 mm | 0 m/s | - | - |
| 1777489979 | 14.44° C | 62% | 1006 hPa | 0 mm | 1.34 m/s, 169° | - | - |
| 1777489678 | 14.44° C | 62% | 1006 hPa | 0 mm | 0.45 m/s, 197° | - | - |
| 1777489378 | 14.44° C | 64% | 1006 hPa | 0 mm | 1.79 m/s, 191° | - | - |
| 1777489078 | 14.44° C | 65% | 1006.1 hPa | 0 mm | 0.45 m/s, 184° | - | - |
| 1777488778 | 14.44° C | 63% | 1006.1 hPa | 0 mm | 1.34 m/s, 189° | - | - |
| 1777488478 | 14.44° C | 65% | 1006.1 hPa | 0 mm | 1.34 m/s, 207° | - | - |
| 1777488178 | 14.44° C | 64% | 1006.4 hPa | 0 mm | 1.34 m/s, 159° | - | - |
| 1777487879 | 14.44° C | 64% | 1006.4 hPa | 0 mm | 1.34 m/s, 200° | - | - |
| 1777487579 | 14.44° C | 64% | 1006.4 hPa | 0 mm | 1.34 m/s, 173° | - | - |
| 1777487278 | 14.44° C | 64% | 1006.7 hPa | 0 mm | 2.24 m/s, 200° | - | - |
| 1777486979 | 15° C | 63% | 1006.7 hPa | 0 mm | 1.34 m/s, 205° | - | - |
| 1777486679 | 15° C | 62% | 1006.7 hPa | 0 mm | 0.89 m/s, 160° | - | - |
| 1777486378 | 15° C | 63% | 1006.8 hPa | 0 mm | 3.13 m/s, 184° | - | - |
| 1777486079 | 15° C | 62% | 1006.8 hPa | 0 mm | 1.79 m/s, 160° | - | - |
| 1777485778 | 15° C | 63% | 1006.8 hPa | 0 mm | 0.45 m/s, 181° | - | - |
| 1777485479 | 15° C | 64% | 1007 hPa | 0 mm | 0.45 m/s, 158° | - | - |
| 1777485179 | 15° C | 64% | 1007 hPa | 0 mm | 1.79 m/s, 118° | - | - |
| 1777484879 | 15° C | 62% | 1007 hPa | 0 mm | 1.79 m/s, 161° | - | - |
| 1777484579 | 15° C | 64% | 1007.3 hPa | 0 mm | 1.79 m/s, 203° | - | - |
| 1777484278 | 15° C | 63% | 1007.3 hPa | 0 mm | 0.89 m/s, 185° | - | - |
| 1777483978 | 15° C | 64% | 1007.3 hPa | 0 mm | 1.34 m/s, 170° | - | - |
* Rain latest hour (hover to see other rain measurements)
** Current wind speed in m/s (hover to see current wind gust speed)